Hourly Data Report for September 09, 2017

All times are specified in Local Standard Time (LST). Add 1 hour to adjust for Daylight Saving Time where and when it is observed.

GRISE FIORD CLIMATE
NUNAVUT

76°25'22.040" N
82°54'08.020" W
44.50 m
2402351
71971
NGC

Download Data

Hourly Data (September 2017)
Hourly Data Report for September 9, 2017
Temp Definition
°C
Dew Point Temp Definition
°C
Rel Hum Definition
%
Wind Dir Definition
10's deg

Wind Spd Definition
km/h
Visibility Definition
km
Stn Press Definition
kPa
Hmdx Definition


Wind Chill Definition


Weather Definition


TIME
00:00 1.0 -7.9 51 3 45   99.06     LegendNANA
01:00 0.7 -6.5 59 5 56   98.96     LegendNANA
02:00 1.1 -8.0 51 35 28   99.04     LegendNANA
03:00 1.5 -7.9 50 1 29   99.05     LegendNANA
04:00 1.0 -7.7 52 36 31   99.05     LegendNANA
05:00 0.6 -8.1 52 34 13   99.06     LegendNANA
06:00 0.2 -8.8 51 2 37   99.02     LegendNANA
07:00 0.4 -8.6 50 35 30   99.01     LegendNANA
08:00 0.9 -9.2 47 35 48   98.97     LegendNANA
09:00 0.6 -9.0 49 35 48   98.94     LegendNANA
10:00 0.7 -8.8 49 35 50   98.88     LegendNANA
11:00 0.0 -8.4 53 35 50   98.89   -8 LegendNANA
12:00 2.3 -9.0 43 36 48   98.83     LegendNANA
13:00 1.8 -8.7 45 1 38   98.83     LegendNANA
14:00 1.9 -9.1 44 4 25   98.84     LegendNANA
15:00 1.1 -9.9 44 1 49   98.84     LegendNANA
16:00 1.7 -10.4 40 3 39   98.88     LegendNANA
17:00 1.5 -10.7 40 4 30   98.87     LegendNANA
18:00 0.5 -8.4 51 19 11   98.91     LegendNANA
19:00 -0.1 -8.8 52 34 22   98.94   -6 LegendNANA
20:00 -0.6 -9.4 51 34 47   98.90   -9 LegendNANA
21:00 -0.8 -9.7 51 2 14   98.91   -5 LegendNANA
22:00 -1.4 -9.8 53 8 13   98.96   -6 LegendNANA
23:00 -1.7 -10.5 51 2 16   98.97   -7 LegendNANA

Notes on Data Quality.

Legend

  • E = Estimated
  • M = Missing
  • NA = Not Available
  • ‡ = Partner data that is not subject to review by the National Climate Archives
Date modified: